POPACS 3

Last updated on Sun Dec 14 2025 00:03:49 GMT+0000 (Coordinated Universal Time)

1 39270U 13055F 25346.97090160 .00011862 00000+0 29532-3 0 9998 2 39270 81.0045 70.4832 0567131 275.5317 78.1480 14.51853305611492
UTC large
Height (km)
Speed (km/s)
/
Latitude / Longitude
Inclination (degrees)
Orbital Period (minutes)
Azimuth
Elevation
Range (km)
Doppler Factor

Next 0 passes for location: London (51.5072 / 0.1276)

Sorry there are no passes over London.